Voltar ao catálogo

USA 267

AtivoMilitarLEO
NORAD 41334·PAYLOAD·🇺🇸 United States

Lançado Feb 10, 2016 de Vandenberg Space Force Base

Loading…

Próximas Passagens (próximas 24 horas)

TLE

EnvelhecendoSource: Mike McCants

Época: Sep 10, 2026, 00:58 UTC

1 41334U 16010A   26253.04052634 0.00000000  00000-0  00000-0 0    08
2 41334 123.0022 109.5651 0005892 145.7518 214.2756 13.41440482    07

Acompanhe USA 267 em tempo real com AllMySat

Download on the App Store